Regional Weather Roundup
Issued by NWS

Home | Current Version | Previous Version | Text Only | Print | Product List | Glossary Off
Versions: 1 2 3 4 5 6 7 8 9 10 11 12 13 14 15 16 17 18 19 20 21 22 23 24 25 26 27 28 29 30 31 32 33 34 35 36 37 38 39 40 41 42 43 44 45 46 47 48 49 50

000
ASUS43 KMKX 050721
RWRWI

WISCONSIN REGIONAL WEATHER ROUNDUP
NATIONAL WEATHER SERVICE MILWAUKEE/SULLIVAN WI
100 AM CST MON DEC 05 2016

NOTE: "FAIR" INDICATES FEW OR NO CLOUDS BELOW 12,000 FEET WITH NO
SIGNIFICANT WEATHER AND/OR OBSTRUCTIONS TO VISIBILITY.

WIZ001-002-006>008-014>016-023>028-050800-
NORTHWEST WISCONSIN

CITY           SKY/WX    TMP DP  RH WIND       PRES   REMARKS
SUPERIOR ARPT  CLOUDY    33  31  89 SW8       29.70S WCI  27
ASHLAND        CLOUDY    34  29  82 SW9       29.70R WCI  27
HAYWARD        CLOUDY    33  29  85 SW7       29.72R WCI  27
SIREN          CLOUDY    34  31  89 SW13      29.75R WCI  25
CUMBERLAND     CLOUDY    32  30  93 SW9       29.74S WCI  24
RICE LAKE      CLOUDY    34  30  85 SW5       29.76F WCI  30
CHETEK         CLOUDY    33  30  90 SW3       29.76S
LADYSMITH      CLOUDY    34  31  89 SW9       29.76S WCI  26
EAU CLAIRE     PTCLDY    34  31  88 SW9       29.79R WCI  27
MENOMONIE      CLEAR     33  31  90 SW6       29.79R WCI  28
NEW RICHMOND   CLEAR     32  30  94 SW8       29.78R WCI  25
OSCEOLA        CLEAR     32  30  90 SW6       29.81R WCI  27
$$

WIZ003>005-009-010-017-018-050800-
NORTH CENTRAL WISCONSIN

CITY           SKY/WX    TMP DP  RH WIND       PRES   REMARKS
MANITOWISH WTR LGT SNOW  31  31 100 SW9G17    29.67S WCI  23
ARBOR VITAE    LGT SNOW  33  32  96 SW7       29.69S WCI  27
WOODRUFF       LGT SNOW  33  32  96 SW7       29.69S WCI  27
RHINELANDER    CLOUDY    32  32 100 W10       29.71R FOG     WCI  24
EAGLE RIVER    CLOUDY    31  31 100 SW9       29.68S FOG     WCI  23
LAND O LAKES   CLOUDY    31  31 100 SW6       29.68F FOG     WCI  26
PHILLIPS       CLOUDY    32  31  96 SW8       29.70S WCI  25
TOMAHAWK       CLOUDY    32  30  92 W9        29.72S WCI  24
MEDFORD        CLOUDY    32  30  92 W10G17    29.74S WCI  24
MERRILL        CLOUDY    33  32  96 W9        29.74S WCI  25
$$

WIZ029-030-035-036-043>047-050800-
CENTRAL WISCONSIN

CITY           SKY/WX    TMP DP  RH WIND       PRES   REMARKS
WAUSAU         CLOUDY    33  31  92 W9        29.75S WCI  25
MOSINEE        CLOUDY    32  32 100 W9        29.77S WCI  24
MARSHFIELD     CLOUDY    33  31  92 W10       29.76S WCI  25
STEVENS POINT  CLOUDY    32  31  99 SW7       29.79R WCI  25
WAUPACA        CLOUDY    34  32  92 CALM      29.80F
WAUTOMA        CLOUDY    33  31  92 SW10      29.82F WCI  25
WISC RAPIDS    CLOUDY    33  33 100 SW7       29.80S WCI  27
CAMP DOUGLAS   CLOUDY    35  31  88 SW10      29.82S WCI  27
$$

WIZ011>013-019>022-031-037>040-048>050-050800-
NORTHEAST WISCONSIN

CITY           SKY/WX    TMP DP  RH WIND       PRES   REMARKS
ANTIGO         CLOUDY    31  31 100 SW12      29.73S FOG     WCI  22
SHAWANO        CLOUDY    34  32  93 CALM      29.78F
OCONTO         CLOUDY    32  30  94 SW8       29.79S WCI  25
STURGEON BAY   CLOUDY    32  31  96 SW12      29.78S WCI  23
GREEN BAY      CLOUDY    34  32  92 SW8       29.80S WCI  27
MANITOWOC      CLOUDY    32  30  93 MISG      29.83R
APPLETON       CLOUDY    32  32 100 SW10      29.80R WCI  24
CLINTONVILLE   CLOUDY    32  32 100 SW7       29.79S WCI  26
OSHKOSH        CLOUDY    33  30  88 SW7       29.82S WCI  27
$$

WIZ032>034-041-042-053>061-050800-
SOUTHWEST WISCONSIN

CITY           SKY/WX    TMP DP  RH WIND       PRES   REMARKS
LA CROSSE      CLOUDY    37  33  85 SW10      29.85R WCI  30
SPARTA         CLOUDY    34  33  96 SW6       29.84R WCI  28
VIROQUA        CLOUDY    32  32 100 SW9       29.85R WCI  24
BOSCOBEL       CLOUDY    34  32  92 SW7       29.90F WCI  28
PRAIRIE DU CHI CLOUDY    35  32  90 CALM      29.90S
PLATTEVILLE    CLOUDY    32  32 100 W7        29.90F WCI  26
$$

WIZ056-057-062-063-064-067-068-050800-
SOUTH CENTRAL WISCONSIN

CITY           SKY/WX    TMP DP  RH WIND       PRES   REMARKS
REEDSBURG      CLOUDY    32  32 100 SW9       29.86S WCI  24
BARABOO/DELLS  CLOUDY    32  31  96 SW13G18   29.85S FOG     WCI  22
LONE ROCK      CLOUDY    34  30  85 SW9       29.90S WCI  27
MINERAL POINT  CLOUDY    34  34 100 SW9       29.89S FOG     WCI  26
MADISON        CLOUDY    34  30  85 W8        29.88S WCI  27
MIDDLETON      CLOUDY    34  33  95 W13       29.88S WCI  25
WATERTOWN      CLOUDY    32  32 100 SW6       29.88S WCI  26
MONROE         CLOUDY    32  32 100 W14       29.90S WCI  22
JANESVILLE     CLOUDY    34  32  93 W12       29.92R WCI  25
$$

WIZ051-052-058>065-066-070>072-050800-
SOUTHEAST WISCONSIN

CITY           SKY/WX    TMP DP  RH WIND       PRES   REMARKS
MILWAUKEE      CLOUDY    34  30  85 W10       29.88F WCI  26
WAUKESHA       CLOUDY    32  30  93 SW5       29.89S WCI  27
MILWAUKEE/TIMM CLOUDY    32  30  93 W5        29.88S WCI  27
RACINE         CLOUDY    33  29  85 W10       29.91R WCI  25
BURLINGTON     CLOUDY    32  31  96 CALM      29.91S
KENOSHA        CLOUDY    33  30  88 W13       29.90R WCI  24
FOND DU LAC    CLOUDY    33  29  85 SW9       29.84S WCI  25
SHEBOYGAN      CLOUDY    32  29  88 SW9       29.84R WCI  24
WEST BEND      CLOUDY    32  32 100 W6        29.85S WCI  26
JUNEAU         CLOUDY    32  30  93 SW10      29.87S WCI  24
$$

LSZ147-162-050800-
LAKE SUPERIOR

STATION/POSITION TIME  TEMP    WIND        PRES    WAVE
                       AIR SEA DIR/SP/G            HT/PER
                 (UTC) (F)     (DEG/KT/KT) (MB)    (FT/S)
DEVILS ISLAND    0700   35     230/ 23/ 27 1004.7R
PORT WING        0630   35     220/  9/ 13 1005.4R
SAXON HARBOR     0630   36     220/ 11/ 18 1005.4R
$$

LMZ867-665-643>646-050800-
LAKE MICHIGAN

STATION/POSITION TIME  TEMP    WIND        PRES    WAVE
                       AIR SEA DIR/SP/G            HT/PER
                 (UTC) (F)     (DEG/KT/KT) (MB)    (FT/S)
CHAMBERS ISLAND  0640   33     220/ 10/ 17 1007.8R
NORTHPORT PIER   0640   34     240/  3/  8 1007.8R
SISTER BAY       0653   35     250/ 18/ 22   N/A
ALGOMA LAKESHORE 0651          250/  9/ 12   N/A
KEWAUNEE LAKESHO 0654   33     240/  8/ 12 1008.8R
SHEBOYGAN LAKESH 0700   33     230/ 11/ 13 1010.9S
PORT WASHINGTON  0630   33     270/  6/ 11 1012.5R
MILWAUKEE LAKESH 0700   34     260/ 12/ 15   N/A
KENOSHA   LAKESH 0700   33     270/ 12/ 16 1012.9
$$

TC  - TEMPERATURE IN CELSIUS
VSB - VISIBILITY IN STATUTE MILES
WCI - WIND CHILL INDEX
HX  - HEAT INDEX




USA.gov is the U.S. government's official web portal to all federal, state and local government web resources and services.